Temperature
11 10 10 10 11 12 12 12 12 13 13 12 11 11 11 12 11 11 11 11 10 9 9 8 7 6 6 5 5 5 5 5 5 4 4 4 4 5 5 5 5 5 5 5
10 9 10 11 12 11 12 11 12 12 12 12 11 11 11 11 11 11 11 11 10 9 8 7 7 6 6 5 5 5 5 4 4 4 4 4 4 4 4 4 4 4 5 5
10 10 11 11 11 11 11 11 11 11 11 11 10 9 10 11 11 11 11 10 10 9 8 7 6 5 5 5 5 4 4 4 4 3 3 3 3 3 4 4 4 4 4 4
10 10 10 10 10 11 10 11 11 10 9 8 9 8 10 11 10 10 10 10 10 9 8 7 6 5 5 4 4 4 4 3 3 3 3 3 3 3 3 3 3 3 3 3
9 9 9 9 10 10 9 10 10 9 9 8 9 8 9 11 10 10 9 9 9 8 7 6 5 5 4 4 3 3 3 3 3 2 2 2 2 2 3 3 3 3 3 3
9 9 9 9 9 9 9 9 9 8 8 7 8 8 9 9 10 9 9 9 8 8 7 6 5 5 4 3 3 3 2 2 2 2 2 2 2 2 2 2 2 2 2 2
8 8 8 8 8 8 8 8 7 7 6 7 9 9 8 9 9 9 8 8 8 7 6 5 5 4 3 3 2 2 2 2 2 2 2 2 1 1 1 1 2 2 2 2
7 7 7 7 8 7 7 8 7 7 7 8 8 8 8 8 7 8 8 7 7 6 5 5 4 3 3 2 2 2 2 1 1 1 1 1 1 1 1 1 1 1 1 1
7 7 7 7 7 7 7 7 8 7 7 7 7 8 7 7 6 6 6 6 6 5 5 4 4 3 2 2 2 1 1 1 1 1 1 1 1 1 0 0 1 1 1 1
7 6 6 6 7 6 7 7 7 6 6 7 8 8 7 6 5 5 5 5 5 4 4 3 3 2 2 2 1 1 1 0 0 0 0 0 0 0 0 0 0 0 0 -0
6 5 5 5 5 6 6 6 6 6 6 6 6 7 7 6 5 4 4 4 4 3 3 2 2 2 1 1 1 1 0 0 -0 -0 -0 -0 -0 -0 -0 -0 -0 -0 -1 -1
5 5 4 5 6 6 6 6 6 5 5 6 6 6 5 5 4 4 3 3 3 2 2 1 1 1 1 1 0 0 -0 -0 -0 -0 -0 -1 -1 -1 -1 -1 -1 -1 -1 -1
4 4 4 5 4 4 4 5 5 5 5 4 5 5 4 4 3 3 3 2 2 1 1 1 0 0 0 -0 -0 -1 -1 -1 -1 -1 -1 -1 -1 -1 -1 -1 -1 -1 -2 -2
4 3 3 4 5 4 4 4 4 4 3 3 4 5 3 3 2 2 2 2 1 1 -0 -0 -0 -0 -1 -1 -1 -1 -1 -1 -1 -2 -2 -2 -2 -2 -2 -2 -2 -2 -2 -2
3 2 3 3 4 4 4 4 4 3 3 3 4 4 3 2 2 1 1 1 0 -0 -1 -1 -1 -1 -1 -1 -1 -2 -2 -2 -2 -2 -2 -2 -3 -3 -3 -3 -3 -3 -3 -3
2 1 2 2 3 3 3 3 3 3 3 3 3 3 2 2 1 1 0 -0 -1 -1 -1 -1 -2 -2 -2 -2 -2 -2 -2 -2 -2 -3 -3 -3 -3 -3 -3 -3 -3 -3 -4 -4
1 1 1 1 2 2 2 2 2 2 2 2 2 1 0 0 -0 -0 -1 -1 -2 -2 -2 -2 -2 -2 -2 -3 -3 -3 -3 -3 -3 -3 -3 -4 -4 -4 -4 -4 -4 -4 -4 -4
0 -0 -0 0 1 1 1 1 2 1 0 0 -0 -1 -1 -1 -2 -2 -2 -3 -3 -3 -3 -3 -3 -3 -3 -3 -3 -3 -3 -3 -4 -4 -4 -4 -4 -5 -5 -5 -5 -5 -5 -5
0 -0 -0 -0 0 1 1 -0 -1 -1 -1 -1 -1 -2 -2 -2 -2 -3 -3 -3 -4 -4 -4 -4 -4 -4 -4 -4 -4 -4 -4 -4 -4 -5 -5 -5 -5 -5 -5 -5 -6 -6 -6 -5
-1 -1 -1 -0 0 0 -1 -2 -1 -1 -2 -3 -2 -3 -3 -3 -3 -4 -4 -4 -4 -4 -5 -5 -5 -4 -4 -4 -5 -5 -5 -5 -5 -5 -5 -5 -5 -6 -6 -6 -6 -6 -6 -6
-2 -2 -2 -1 -1 -1 -3 -2 -1 -2 -3 -4 -3 -4 -4 -5 -5 -5 -5 -5 -5 -5 -5 -5 -5 -5 -5 -5 -5 -5 -6 -6 -6 -6 -6 -6 -6 -6 -6 -6 -7 -7 -7 -7
-2 -2 -2 -2 -2 -2 -4 -3 -4 -4 -4 -4 -5 -5 -5 -6 -6 -6 -6 -6 -6 -6 -6 -6 -6 -6 -6 -6 -6 -6 -6 -6 -6 -6 -6 -6 -6 -7 -7 -7 -7 -7 -8 -8
-3 -3 -3 -3 -3 -4 -5 -5 -5 -5 -5 -6 -6 -6 -6 -7 -7 -7 -7 -7 -7 -7 -7 -7 -7 -7 -7 -7 -7 -7 -7 -7 -7 -7 -7 -7 -7 -7 -8 -8 -8 -8 -8 -9
-4 -4 -4 -4 -5 -5 -5 -6 -6 -6 -6 -7 -7 -7 -7 -7 -8 -8 -8 -8 -8 -8 -8 -8 -8 -8 -7 -7 -7 -8 -8 -8 -8 -8 -8 -8 -8 -8 -8 -8 -9 -9 -9 -9
-6 -6 -5 -5 -6 -6 -7 -7 -7 -7 -7 -7 -8 -8 -8 -8 -9 -9 -9 -9 -9 -9 -9 -9 -8 -8 -8 -8 -8 -8 -8 -8 -8 -8 -8 -8 -8 -9 -9 -9 -9 -9 -9 -10
-7 -7 -7 -7 -7 -7 -8 -8 -8 -8 -8 -9 -9 -9 -9 -9 -10 -10 -10 -10 -10 -10 -9 -9 -9 -9 -9 -9 -9 -9 -9 -9 -9 -9 -9 -9 -9 -9 -10 -10 -10 -10 -10 -10
Wind_Speed
6 6 8 11 12 10 7 9 10 6 5 8 11 12 10 8 8 9 9 9 9 9 8 9 9 9 9 9 9 9 9 7 6 5 4 3 3 3 2 3 5 5 4 4
5 10 10 7 7 10 12 12 11 5 4 5 9 12 10 9 11 10 9 9 8 8 8 9 9 9 9 10 10 9 9 8 7 5 4 2 3 2 2 3 4 4 4 4
9 5 5 8 9 10 12 11 9 6 3 5 5 9 10 8 9 8 8 7 7 8 9 9 9 8 8 9 10 9 9 9 8 6 4 4 3 3 2 2 2 2 4 4
7 6 5 7 9 9 10 6 6 6 4 5 6 6 7 8 9 10 10 8 7 7 7 8 8 9 9 8 7 8 9 8 8 7 7 7 5 4 3 3 3 2 3 3
5 4 6 8 7 6 5 2 4 6 6 6 7 6 6 7 8 9 8 7 6 6 7 8 8 8 7 7 7 7 7 8 8 7 7 6 5 3 3 4 4 3 2 3
6 3 4 4 3 4 2 1 3 3 3 7 9 8 6 6 7 5 6 6 5 5 5 6 7 6 6 6 6 6 7 7 7 7 7 6 6 5 6 5 4 3 2 2
5 5 3 1 2 4 4 2 1 2 5 7 6 7 6 2 4 6 6 5 5 5 5 5 7 7 6 7 7 7 7 7 7 7 7 6 6 6 7 6 5 4 3 2
4 5 5 3 4 4 6 5 4 4 5 3 4 7 3 3 4 5 5 4 4 5 4 5 6 6 6 6 6 7 7 7 7 7 6 6 6 5 4 4 4 4 3 3
3 3 2 3 2 3 4 6 4 3 4 4 5 4 2 4 4 4 4 4 3 3 4 4 5 5 6 6 6 6 6 6 6 6 6 6 6 5 4 4 4 3 3 3
2 4 2 2 2 5 4 2 2 4 4 5 6 6 4 5 4 4 3 3 2 3 3 3 4 4 4 5 5 5 5 5 5 5 5 4 5 5 4 4 4 4 4 4
3 3 2 2 5 5 4 4 4 4 4 3 4 3 1 4 5 5 3 3 2 2 2 2 3 3 4 4 4 4 5 4 4 4 4 4 4 4 4 4 4 4 4 4
2 2 4 4 1 1 3 4 5 4 4 4 3 2 4 6 5 4 3 3 2 2 2 2 3 3 4 4 4 4 5 4 4 4 4 4 4 4 4 4 4 4 4 3
2 2 3 2 1 1 2 4 5 4 2 4 4 3 2 5 5 4 3 3 2 3 3 2 2 3 3 3 3 4 4 4 4 4 4 4 4 4 4 4 3 4 3 3
2 4 5 6 4 2 4 5 5 5 5 6 7 5 2 2 3 3 3 3 2 3 2 2 2 2 2 3 3 3 4 4 3 4 4 4 4 4 4 3 3 3 3 3
1 4 6 8 8 5 7 8 7 9 8 7 6 5 3 2 1 1 1 2 2 2 2 1 1 1 2 3 3 3 3 3 4 4 4 3 3 3 3 3 3 3 3 2
1 4 4 6 6 6 7 7 8 9 9 9 8 6 3 3 3 3 3 2 2 1 1 2 1 1 2 2 3 3 3 3 4 4 3 3 4 3 3 3 3 3 2 2
2 2 2 4 3 5 5 5 7 5 4 4 6 5 3 4 4 3 3 3 3 3 3 2 2 1 1 2 3 3 3 3 3 3 3 3 4 3 3 3 3 3 2 2
3 2 2 3 2 6 3 2 1 2 0 1 2 3 4 4 4 4 5 5 4 5 4 4 3 2 2 2 2 3 3 3 3 3 3 3 3 3 2 3 3 2 2 2
3 4 3 3 4 5 1 3 2 1 1 4 4 4 5 5 3 4 8 7 5 4 3 3 2 2 2 2 2 3 3 3 3 3 2 2 3 2 2 2 2 1 1 1
1 2 3 3 4 4 1 4 5 1 1 6 6 5 4 5 2 2 6 7 6 6 4 4 3 3 2 2 3 3 2 2 2 2 2 1 2 2 2 2 1 1 1 1
1 3 4 5 4 2 3 5 3 1 2 6 6 5 4 3 2 2 5 6 5 5 5 4 4 3 2 2 3 3 3 2 2 2 2 1 2 2 2 1 1 1 1 1
2 2 3 3 4 3 5 4 2 1 3 5 5 5 4 4 3 4 5 5 5 5 5 5 4 3 3 3 3 3 2 2 2 2 2 1 1 1 1 2 1 1 1 1
1 2 1 2 2 1 3 3 3 3 3 5 5 4 3 3 3 4 5 5 5 5 5 4 4 4 4 3 3 2 2 2 2 2 2 1 1 1 1 1 1 1 1 1
2 3 1 2 1 2 4 5 7 6 5 5 5 4 4 3 4 4 4 5 5 5 5 4 4 3 3 3 3 2 2 2 2 2 2 1 1 1 1 0 0 1 1 1
3 3 2 2 2 2 3 5 6 6 6 5 5 5 4 4 4 4 4 5 5 5 5 4 4 3 3 3 3 3 2 2 2 2 1 1 1 1 1 1 1 1 1 2
2 1 2 3 2 2 3 4 4 4 5 5 5 5 5 4 3 4 4 4 4 5 4 4 4 3 3 3 3 2 2 2 2 1 1 1 1 1 0 0 2 3 2 3
Wind_Direction
197 210 216 215 219 243 266 258 255 247 189 204 229 240 234 212 212 214 207 199 196 193 180 171 169 165 163 162 160 162 160 159 154 156 155 151 150 142 124 115 122 122 114 102
205 221 230 239 234 243 255 257 260 262 216 229 249 252 240 219 214 210 207 201 193 182 174 172 168 167 171 170 168 168 167 167 165 165 161 156 144 141 127 116 123 127 117 116
226 219 225 234 236 241 247 247 254 265 288 257 267 268 234 223 215 209 206 199 187 179 178 172 171 169 170 175 174 175 172 171 168 155 141 133 116 114 117 134 143 125 126 128
239 234 237 239 236 233 246 250 252 253 252 246 207 264 237 212 208 209 202 194 185 173 168 170 173 174 175 175 173 172 170 171 168 162 165 165 165 165 172 170 160 140 132 128
232 211 223 238 237 234 249 297 260 245 240 256 230 245 255 198 213 208 189 180 171 164 162 166 173 175 171 167 166 168 170 173 170 172 172 170 164 157 144 145 147 148 132 126
249 239 230 236 251 229 226 261 249 248 235 245 220 219 257 200 199 170 162 164 160 156 156 160 162 157 156 155 160 165 170 176 173 172 173 173 165 157 152 154 160 160 154 134
240 221 208 209 222 199 198 177 196 215 216 238 201 213 242 154 135 150 153 156 146 141 145 153 156 158 160 162 167 171 174 179 177 174 178 178 171 167 167 167 167 163 162 164
253 238 193 198 207 204 211 204 198 216 227 251 206 221 223 144 102 97 98 111 116 127 139 147 155 159 163 164 167 173 178 179 177 177 179 176 169 169 172 167 163 166 169 168
269 261 162 196 214 207 208 222 250 282 282 267 236 212 172 118 113 110 102 106 119 120 123 133 141 150 160 166 171 173 176 178 178 176 173 175 171 169 167 158 149 156 152 151
294 281 233 184 207 232 239 233 211 219 230 244 246 225 204 167 166 137 126 125 112 115 120 124 136 144 152 161 163 162 169 175 170 168 172 172 169 169 164 157 154 155 149 141
292 261 242 193 207 203 186 205 219 223 234 232 256 258 46 137 145 141 133 116 117 111 115 122 124 130 135 140 153 161 164 158 161 165 161 162 168 166 158 155 153 150 143 143
304 278 253 236 213 328 207 208 198 209 241 234 254 275 46 72 89 95 89 76 75 105 104 106 112 113 119 136 152 159 160 157 159 161 160 162 158 153 149 147 146 144 144 143
327 272 276 248 220 328 246 231 229 242 259 237 232 246 39 54 62 70 78 74 72 88 93 90 95 112 124 139 149 154 154 152 151 151 154 154 153 151 148 146 143 143 144 145
278 245 232 242 273 236 256 249 231 221 230 243 236 255 291 349 21 30 49 65 86 91 91 97 101 112 123 136 141 145 145 142 143 144 148 153 155 152 148 145 142 144 149 150
292 259 263 275 282 273 262 256 242 229 232 240 260 268 281 290 309 343 58 79 85 85 75 76 92 120 122 124 132 129 132 135 134 136 143 148 143 143 142 144 145 144 150 157
297 282 297 280 271 268 270 260 248 245 246 253 270 277 339 9 29 32 46 52 39 45 47 46 57 92 120 128 130 128 130 131 133 138 140 138 141 142 144 149 149 145 149 156
233 257 279 270 302 305 263 248 230 228 241 241 255 277 342 354 1 12 29 36 20 20 17 14 21 59 98 124 135 143 141 132 134 139 141 142 141 143 150 154 150 153 162 165
215 219 242 274 292 243 234 13 20 190 198 12 4 6 10 3 358 37 42 34 23 17 12 3 6 25 46 79 108 121 124 127 131 137 142 141 138 141 147 151 155 164 163 175
214 200 222 231 248 261 271 8 2 263 282 15 359 2 9 1 25 52 29 25 17 11 4 5 10 26 43 63 95 103 106 112 117 123 131 138 142 142 144 155 164 162 161 189
213 196 217 233 243 246 328 345 331 347 244 13 9 7 6 12 13 346 2 11 12 13 13 18 20 34 44 51 86 99 101 106 116 120 117 125 135 147 156 158 161 156 172 202
168 211 222 238 244 260 4 330 346 126 286 349 5 10 14 16 356 336 356 7 13 13 12 19 25 35 34 50 80 93 91 92 87 86 95 105 118 135 144 136 144 159 184 192
214 219 214 226 236 257 11 20 38 329 349 5 11 16 22 21 16 12 12 8 12 15 16 16 26 31 34 53 75 83 71 62 75 80 82 82 90 116 125 131 155 178 182 193
219 238 248 208 220 31 45 49 30 20 10 6 9 11 21 13 7 11 11 11 11 13 13 18 29 36 35 42 63 77 51 63 73 70 62 61 53 51 113 154 177 185 191 202
332 341 306 303 331 29 41 43 27 25 21 8 9 8 16 14 12 10 9 11 12 12 12 18 25 35 29 33 38 52 52 65 78 70 48 50 64 51 41 1 227 203 210 222
308 324 308 280 320 22 42 23 12 14 18 17 15 17 22 28 13 7 5 5 5 5 8 13 17 24 22 27 33 30 38 66 71 60 43 27 27 55 29 343 310 274 241 242
335 311 286 276 325 313 317 350 10 13 10 11 11 15 22 25 12 8 4 3 2 359 0 5 12 15 11 15 18 24 37 63 71 42 24 16 15 9 6 4 352 343 322 301
Height
1462 1465 1464 1462 1462 1461 1460 1460 1460 1457 1458 1462 1463 1463 1462 1463 1464 1466 1467 1470 1472 1474 1478 1480 1482 1484 1487 1489 1490 1492 1494 1496 1498 1500 1502 1503 1505 1507 1510 1511 1513 1514 1515 1516
1460 1461 1458 1458 1459 1460 1460 1461 1459 1458 1458 1460 1461 1459 1457 1457 1459 1460 1462 1464 1467 1471 1473 1476 1478 1480 1482 1484 1486 1488 1490 1492 1494 1497 1499 1501 1503 1505 1507 1509 1510 1511 1512 1514
1456 1456 1455 1457 1457 1459 1458 1459 1459 1461 1460 1459 1462 1460 1454 1452 1453 1455 1457 1460 1462 1465 1468 1471 1474 1475 1478 1480 1482 1484 1486 1489 1491 1493 1496 1498 1500 1501 1503 1505 1506 1508 1509 1511
1454 1453 1454 1455 1455 1456 1458 1455 1457 1460 1465 1466 1463 1468 1451 1448 1449 1450 1452 1455 1458 1461 1465 1467 1469 1471 1473 1476 1478 1480 1483 1485 1487 1490 1491 1493 1494 1496 1498 1501 1503 1505 1506 1508
1451 1451 1453 1454 1453 1455 1456 1455 1456 1458 1462 1465 1461 1465 1451 1444 1447 1446 1448 1451 1454 1458 1461 1463 1465 1467 1470 1473 1475 1477 1479 1481 1484 1486 1488 1490 1492 1494 1496 1497 1499 1501 1503 1504
1451 1450 1451 1452 1453 1454 1455 1457 1457 1459 1463 1467 1456 1460 1450 1443 1441 1443 1446 1449 1452 1455 1458 1460 1462 1465 1467 1470 1472 1474 1476 1478 1480 1482 1484 1487 1488 1490 1492 1493 1495 1497 1499 1500
1451 1450 1450 1451 1453 1454 1456 1460 1464 1466 1467 1459 1447 1450 1447 1438 1437 1440 1443 1446 1449 1452 1455 1457 1459 1461 1464 1466 1468 1470 1472 1474 1476 1478 1481 1483 1485 1487 1489 1490 1491 1493 1495 1497
1452 1452 1450 1450 1451 1454 1454 1455 1461 1463 1458 1451 1446 1447 1443 1438 1438 1440 1442 1445 1448 1451 1453 1455 1457 1458 1460 1462 1465 1467 1468 1470 1472 1474 1477 1480 1482 1484 1486 1488 1489 1490 1492 1494
1452 1450 1448 1449 1450 1451 1453 1454 1451 1455 1452 1453 1446 1440 1442 1439 1440 1442 1443 1445 1447 1450 1451 1453 1455 1456 1458 1460 1461 1464 1465 1467 1469 1471 1474 1476 1478 1481 1483 1485 1486 1488 1489 1491
1451 1454 1450 1449 1450 1451 1451 1451 1455 1458 1457 1452 1440 1437 1441 1441 1442 1442 1444 1445 1447 1449 1450 1452 1453 1454 1456 1457 1459 1461 1463 1465 1467 1469 1471 1473 1475 1477 1479 1481 1483 1484 1486 1487
1452 1455 1453 1452 1451 1449 1451 1453 1452 1453 1452 1452 1447 1443 1436 1437 1439 1442 1443 1445 1446 1448 1449 1451 1452 1453 1454 1455 1457 1459 1461 1462 1464 1466 1467 1470 1472 1474 1476 1477 1479 1481 1482 1483
1454 1455 1455 1450 1447 1447 1447 1448 1451 1456 1453 1449 1449 1447 1439 1439 1440 1442 1444 1446 1446 1447 1448 1449 1450 1451 1452 1453 1455 1456 1458 1459 1461 1463 1465 1467 1469 1470 1472 1473 1475 1477 1478 1480
1457 1458 1458 1451 1453 1452 1451 1449 1449 1451 1452 1452 1452 1448 1442 1441 1442 1443 1445 1446 1446 1446 1447 1448 1448 1449 1450 1451 1452 1454 1455 1457 1458 1460 1462 1464 1465 1467 1468 1470 1472 1474 1475 1477
1456 1457 1457 1453 1447 1449 1451 1449 1448 1451 1454 1451 1445 1443 1444 1444 1444 1445 1445 1446 1446 1446 1447 1447 1447 1448 1448 1449 1450 1452 1453 1454 1456 1457 1459 1460 1462 1463 1465 1467 1468 1470 1472 1473
1456 1457 1452 1449 1446 1446 1446 1446 1446 1449 1448 1449 1442 1441 1444 1444 1445 1445 1445 1445 1446 1446 1446 1446 1446 1446 1447 1448 1449 1450 1451 1452 1454 1455 1456 1458 1459 1461 1462 1464 1465 1467 1468 1470
1457 1457 1454 1451 1445 1445 1445 1444 1444 1444 1444 1443 1442 1443 1445 1445 1445 1445 1445 1445 1445 1446 1445 1445 1445 1445 1446 1446 1447 1448 1449 1450 1451 1452 1454 1455 1457 1458 1459 1460 1462 1463 1465 1466
1457 1459 1458 1453 1446 1446 1446 1444 1443 1443 1444 1444 1445 1447 1446 1446 1446 1446 1445 1445 1445 1445 1445 1444 1444 1444 1444 1445 1445 1446 1447 1448 1449 1450 1451 1453 1454 1455 1456 1457 1458 1460 1461 1463
1457 1458 1458 1455 1452 1454 1446 1442 1441 1442 1445 1445 1446 1447 1447 1447 1447 1446 1446 1446 1445 1445 1445 1444 1443 1443 1443 1444 1444 1445 1446 1446 1447 1448 1449 1450 1451 1452 1454 1454 1456 1457 1458 1460
1453 1456 1457 1456 1452 1445 1445 1446 1446 1445 1446 1448 1447 1447 1447 1446 1444 1446 1446 1446 1446 1445 1444 1443 1443 1442 1442 1442 1443 1443 1444 1445 1446 1447 1447 1448 1449 1450 1451 1452 1453 1454 1455 1456
1453 1455 1457 1454 1452 1447 1450 1449 1446 1446 1449 1450 1448 1448 1448 1446 1448 1449 1447 1446 1445 1444 1443 1442 1441 1441 1441 1441 1441 1441 1442 1443 1444 1444 1445 1446 1447 1448 1448 1449 1451 1452 1453 1453
1457 1458 1457 1454 1452 1450 1454 1449 1446 1452 1453 1452 1450 1449 1449 1449 1451 1450 1447 1446 1445 1443 1442 1442 1441 1440 1440 1440 1440 1440 1440 1441 1442 1443 1443 1444 1445 1445 1446 1447 1448 1449 1450 1450
1456 1456 1456 1455 1453 1455 1454 1452 1455 1456 1454 1452 1451 1450 1449 1449 1449 1448 1447 1445 1444 1443 1442 1441 1440 1439 1439 1439 1439 1439 1439 1440 1440 1441 1442 1442 1443 1443 1444 1445 1445 1446 1447 1447
1457 1458 1455 1456 1458 1456 1455 1455 1455 1454 1453 1452 1451 1450 1449 1448 1448 1447 1446 1445 1444 1443 1442 1441 1440 1439 1439 1439 1438 1438 1438 1439 1439 1439 1440 1440 1441 1441 1442 1442 1442 1443 1444 1444
1458 1457 1456 1456 1456 1456 1456 1455 1455 1454 1453 1452 1451 1450 1449 1448 1447 1446 1445 1444 1443 1442 1441 1440 1439 1438 1438 1438 1438 1438 1438 1438 1437 1437 1438 1438 1438 1439 1439 1440 1440 1441 1441 1441
1461 1459 1458 1457 1457 1456 1455 1455 1455 1453 1452 1451 1450 1449 1448 1447 1446 1445 1444 1443 1442 1441 1440 1439 1438 1437 1437 1437 1436 1437 1436 1436 1436 1436 1436 1436 1436 1437 1437 1438 1438 1438 1439 1439
1462 1463 1462 1459 1458 1458 1457 1455 1454 1453 1452 1451 1449 1448 1447 1446 1445 1444 1443 1442 1441 1440 1439 1438 1437 1436 1436 1435 1435 1435 1435 1435 1434 1434 1434 1434 1435 1435 1435 1435 1436 1436 1436 1436